Location: La Oliva
(42.2466°N, 2.9955°E)
Time: 11:30:15
(UTC+00:00)

Cosmos 1408 Rocket - Pass Details

Date: 22 April 2021
Orbit: 600 x 631 km, 82.6° (Epoch: 11 May)

Event Time Altitude Azimuth Distance (km) Brightness Sun altitude
Rises 21:29:22 0° 351° (N) 2,864 7.9 -26.9°
Reaches altitude 10° 21:31:35 10° 351° (N) 1,959 6.9 -27.1°
Enters shadow 21:34:52 51° 346° (NNW) 765 4.2 -27.5°
